Overview Statistics Trail Chart Weather Telemetry Raw packets
 

This is the latest recevied weather packets stored in our database for station/object DF1GD-10. If no packets are shown the sender has not sent any weather packets the latest 10 day(s).

<< 32 33 34 35 36 37 38 >>
Time Temp. Humidity Pressure Rain* Wind** Luminosity Snow
1787934114 23.89° C 28% 1012.5 hPa - - - -
1787933213 24.44° C 28% 1012.4 hPa - - - -
1787932313 24.44° C 26% 1012.3 hPa - - - -
1787931413 25° C 25% 1012.1 hPa - - - -
1787930513 25° C 25% 1011.9 hPa - - - -
1787929613 26.11° C 24% 1012.1 hPa - - - -
1787928713 26.11° C 25% 1011.9 hPa - - - -
1787927813 26.11° C 27% 1012 hPa - - - -
1787926913 25° C 31% 1012 hPa - - - -
1787926012 25° C 34% 1011.9 hPa - - - -
1787925112 23.89° C 39% 1012.2 hPa - - - -
1787924212 22.22° C 42% 1012.1 hPa - - - -
1787923312 22.78° C 42% 1012 hPa - - - -
1787922412 22.78° C 46% 1012.5 hPa - - - -
1787921512 21.67° C 53% 1012.5 hPa - - - -
1787920611 21.67° C 55% 1012.7 hPa - - - -
1787919711 21.11° C 57% 1012.9 hPa - - - -
1787918811 21.11° C 58% 1012.8 hPa - - - -
1787917911 20.56° C 62% 1012.8 hPa - - - -
1787917011 20° C 64% 1012.6 hPa - - - -
1787916111 20° C 65% 1012.9 hPa - - - -
1787915211 20° C 66% 1012.8 hPa - - - -
1787914310 20° C 65% 1012.3 hPa - - - -
1787913410 22.78° C 57% 1012.3 hPa - - - -
1787912510 18.89° C 77% 1012.3 hPa - - - -

* Rain since midnight (hover to see other rain measurements)
** Current wind speed in m/s (hover to see current wind gust speed)